Year,Month,Day,Hour,Minute,Value (Times are PST for insolation in W/m^2)
2016,08,12,00,00,0.00
2016,08,12,00,01,0.00
2016,08,12,00,02,0.00
2016,08,12,00,03,0.00
2016,08,12,00,04,0.00
2016,08,12,00,05,0.00
2016,08,12,00,06,0.00
2016,08,12,00,07,0.00
2016,08,12,00,08,0.00
2016,08,12,00,09,0.00
2016,08,12,00,10,0.00
2016,08,12,00,11,0.00
2016,08,12,00,12,0.00
2016,08,12,00,13,0.00
2016,08,12,00,14,0.00
2016,08,12,00,15,0.00
2016,08,12,00,16,0.00
2016,08,12,00,17,0.00
2016,08,12,00,18,0.00
2016,08,12,00,19,0.00
2016,08,12,00,20,0.00
2016,08,12,00,21,0.00
2016,08,12,00,22,0.00
2016,08,12,00,23,0.00
2016,08,12,00,24,0.00
2016,08,12,00,25,0.00
2016,08,12,00,26,0.00
2016,08,12,00,27,0.00
2016,08,12,00,28,0.00
2016,08,12,00,29,0.00
2016,08,12,00,30,0.00
2016,08,12,00,31,0.00
2016,08,12,00,32,0.00
2016,08,12,00,33,0.00
2016,08,12,00,34,0.00
2016,08,12,00,35,0.00
2016,08,12,00,36,0.00
2016,08,12,00,37,0.00
2016,08,12,00,38,0.00
2016,08,12,00,39,0.00
2016,08,12,00,40,0.00
2016,08,12,00,41,0.00
2016,08,12,00,42,0.00
2016,08,12,00,43,0.00
2016,08,12,00,44,0.00
2016,08,12,00,45,0.00
2016,08,12,00,46,0.00
2016,08,12,00,47,0.00
2016,08,12,00,48,0.00
2016,08,12,00,49,0.00
2016,08,12,00,50,0.00
2016,08,12,00,51,0.00
2016,08,12,00,52,0.00
2016,08,12,00,53,0.00
2016,08,12,00,54,0.00
2016,08,12,00,55,0.00
2016,08,12,00,56,0.00
2016,08,12,00,57,0.00
2016,08,12,00,58,0.00
2016,08,12,00,59,0.00
2016,08,12,01,00,0.00
2016,08,12,01,01,0.00
2016,08,12,01,02,0.00
2016,08,12,01,03,0.00
2016,08,12,01,04,0.00
2016,08,12,01,05,0.00
2016,08,12,01,06,0.00
2016,08,12,01,07,0.00
2016,08,12,01,08,0.00
2016,08,12,01,09,0.00
2016,08,12,01,10,0.00
2016,08,12,01,11,0.00
2016,08,12,01,12,0.00
2016,08,12,01,13,0.00
2016,08,12,01,14,0.00
2016,08,12,01,15,0.00
2016,08,12,01,16,0.00
2016,08,12,01,17,0.00
2016,08,12,01,18,0.00
2016,08,12,01,19,0.00
2016,08,12,01,20,0.00
2016,08,12,01,21,0.00
2016,08,12,01,22,0.00
2016,08,12,01,23,0.00
2016,08,12,01,24,0.00
2016,08,12,01,25,0.00
2016,08,12,01,26,0.00
2016,08,12,01,27,0.00
2016,08,12,01,28,0.00
2016,08,12,01,29,0.00
2016,08,12,01,30,0.00
2016,08,12,01,31,0.00
2016,08,12,01,32,0.00
2016,08,12,01,33,0.00
2016,08,12,01,34,0.00
2016,08,12,01,35,0.00
2016,08,12,01,36,0.00
2016,08,12,01,37,0.00
2016,08,12,01,38,0.00
2016,08,12,01,39,0.00
2016,08,12,01,40,0.00
2016,08,12,01,41,0.00
2016,08,12,01,42,0.00
2016,08,12,01,43,0.00
2016,08,12,01,44,0.00
2016,08,12,01,45,0.00
2016,08,12,01,46,0.00
2016,08,12,01,47,0.00
2016,08,12,01,48,0.00
2016,08,12,01,49,0.00
2016,08,12,01,50,0.00
2016,08,12,01,51,0.00
2016,08,12,01,52,0.00
2016,08,12,01,53,0.00
2016,08,12,01,54,0.00
2016,08,12,01,55,0.00
2016,08,12,01,56,0.00
2016,08,12,01,57,0.00
2016,08,12,01,58,0.00
2016,08,12,01,59,0.00
2016,08,12,02,00,0.00
2016,08,12,02,01,0.00
2016,08,12,02,02,0.00
2016,08,12,02,03,0.00
2016,08,12,02,04,0.00
2016,08,12,02,05,0.00
2016,08,12,02,06,0.00
2016,08,12,02,07,0.00
2016,08,12,02,08,0.00
2016,08,12,02,09,0.00
2016,08,12,02,10,0.00
2016,08,12,02,11,0.00
2016,08,12,02,12,0.00
2016,08,12,02,13,0.00
2016,08,12,02,14,0.00
2016,08,12,02,15,0.00
2016,08,12,02,16,0.00
2016,08,12,02,17,0.00
2016,08,12,02,18,0.00
2016,08,12,02,19,0.00
2016,08,12,02,20,0.00
2016,08,12,02,21,0.00
2016,08,12,02,22,0.00
2016,08,12,02,23,0.00
2016,08,12,02,24,0.00
2016,08,12,02,25,0.00
2016,08,12,02,26,0.00
2016,08,12,02,27,0.00
2016,08,12,02,28,0.00
2016,08,12,02,29,0.00
2016,08,12,02,30,0.00
2016,08,12,02,31,0.00
2016,08,12,02,32,0.00
2016,08,12,02,33,0.00
2016,08,12,02,34,0.00
2016,08,12,02,35,0.00
2016,08,12,02,36,0.00
2016,08,12,02,37,0.00
2016,08,12,02,38,0.00
2016,08,12,02,39,0.00
2016,08,12,02,40,0.00
2016,08,12,02,41,0.00
2016,08,12,02,42,0.00
2016,08,12,02,43,0.00
2016,08,12,02,44,0.00
2016,08,12,02,45,0.00
2016,08,12,02,46,0.00
2016,08,12,02,47,0.00
2016,08,12,02,48,0.00
2016,08,12,02,49,0.00
2016,08,12,02,50,0.00
2016,08,12,02,51,0.00
2016,08,12,02,52,0.00
2016,08,12,02,53,0.00
2016,08,12,02,54,0.00
2016,08,12,02,55,0.00
2016,08,12,02,56,0.00
2016,08,12,02,57,0.00
2016,08,12,02,58,0.00
2016,08,12,02,59,0.00
2016,08,12,03,00,0.00
2016,08,12,03,01,0.00
2016,08,12,03,02,0.00
2016,08,12,03,03,0.00
2016,08,12,03,05,0.00
2016,08,12,03,06,0.00
2016,08,12,03,07,0.00
2016,08,12,03,08,0.00
2016,08,12,03,09,0.00
2016,08,12,03,10,0.00
2016,08,12,03,11,0.00
2016,08,12,03,12,0.00
2016,08,12,03,13,0.00
2016,08,12,03,14,0.00
2016,08,12,03,15,0.00
2016,08,12,03,16,0.00
2016,08,12,03,17,0.00
2016,08,12,03,18,0.00
2016,08,12,03,19,0.00
2016,08,12,03,20,0.00
2016,08,12,03,21,0.00
2016,08,12,03,22,0.00
2016,08,12,03,23,0.00
2016,08,12,03,24,0.00
2016,08,12,03,25,0.00
2016,08,12,03,26,0.00
2016,08,12,03,27,0.00
2016,08,12,03,28,0.00
2016,08,12,03,29,0.00
2016,08,12,03,30,0.00
2016,08,12,03,31,0.00
2016,08,12,03,32,0.00
2016,08,12,03,33,0.00
2016,08,12,03,34,0.00
2016,08,12,03,35,0.00
2016,08,12,03,36,0.00
2016,08,12,03,37,0.00
2016,08,12,03,38,0.00
2016,08,12,03,39,0.00
2016,08,12,03,40,0.00
2016,08,12,03,41,0.00
2016,08,12,03,42,0.00
2016,08,12,03,43,0.00
2016,08,12,03,44,0.00
2016,08,12,03,45,0.00
2016,08,12,03,46,0.00
2016,08,12,03,47,0.00
2016,08,12,03,48,0.00
2016,08,12,03,49,0.00
2016,08,12,03,50,0.00
2016,08,12,03,51,0.00
2016,08,12,03,52,0.00
2016,08,12,03,53,0.00
2016,08,12,03,54,0.00
2016,08,12,03,55,0.00
2016,08,12,03,56,0.00
2016,08,12,03,57,0.00
2016,08,12,03,58,0.00
2016,08,12,03,59,0.00
2016,08,12,04,00,0.00
2016,08,12,04,01,0.00
2016,08,12,04,02,0.00
2016,08,12,04,03,0.00
2016,08,12,04,04,0.00
2016,08,12,04,05,0.00
2016,08,12,04,06,0.00
2016,08,12,04,07,0.00
2016,08,12,04,08,0.00
2016,08,12,04,09,0.00
2016,08,12,04,10,0.00
2016,08,12,04,11,0.00
2016,08,12,04,12,0.00
2016,08,12,04,13,0.00
2016,08,12,04,14,0.00
2016,08,12,04,15,0.00
2016,08,12,04,16,0.00
2016,08,12,04,17,0.00
2016,08,12,04,18,0.00
2016,08,12,04,19,0.00
2016,08,12,04,20,0.00
2016,08,12,04,21,0.00
2016,08,12,04,22,0.00
2016,08,12,04,23,0.00
2016,08,12,04,24,0.00
2016,08,12,04,25,0.00
2016,08,12,04,26,0.00
2016,08,12,04,27,0.00
2016,08,12,04,28,0.00
2016,08,12,04,29,0.00
2016,08,12,04,30,0.00
2016,08,12,04,31,0.00
2016,08,12,04,32,0.00
2016,08,12,04,33,0.00
2016,08,12,04,34,0.00
2016,08,12,04,35,0.00
2016,08,12,04,36,0.00
2016,08,12,04,37,0.00
2016,08,12,04,38,0.00
2016,08,12,04,39,0.00
2016,08,12,04,40,0.00
2016,08,12,04,41,0.00
2016,08,12,04,42,0.00
2016,08,12,04,43,0.00
2016,08,12,04,44,0.00
2016,08,12,04,45,0.00
2016,08,12,04,46,0.00
2016,08,12,04,47,0.00
2016,08,12,04,48,0.00
2016,08,12,04,49,0.00
2016,08,12,04,50,0.00
2016,08,12,04,51,0.00
2016,08,12,04,52,0.00
2016,08,12,04,53,0.00
2016,08,12,04,54,0.00
2016,08,12,04,55,0.00
2016,08,12,04,56,0.00
2016,08,12,04,57,0.00
2016,08,12,04,58,0.00
2016,08,12,04,59,0.00
2016,08,12,05,00,0.00
2016,08,12,05,01,0.00
2016,08,12,05,02,0.00
2016,08,12,05,03,0.00
2016,08,12,05,04,0.00
2016,08,12,05,05,0.00
2016,08,12,05,06,0.00
2016,08,12,05,07,0.00
2016,08,12,05,08,0.00
2016,08,12,05,09,0.00
2016,08,12,05,10,0.00
2016,08,12,05,11,0.00
2016,08,12,05,12,0.00
2016,08,12,05,13,0.00
2016,08,12,05,14,0.00
2016,08,12,05,15,0.00
2016,08,12,05,16,0.00
2016,08,12,05,17,0.00
2016,08,12,05,18,0.00
2016,08,12,05,19,0.00
2016,08,12,05,20,0.00
2016,08,12,05,21,0.00
2016,08,12,05,22,0.00
2016,08,12,05,23,0.00
2016,08,12,05,24,0.00
2016,08,12,05,25,0.00
2016,08,12,05,26,0.00
2016,08,12,05,27,0.00
2016,08,12,05,28,0.00
2016,08,12,05,29,0.00
2016,08,12,05,30,0.00
2016,08,12,05,31,0.00
2016,08,12,05,32,0.00
2016,08,12,05,33,0.00
2016,08,12,05,34,0.00
2016,08,12,05,35,0.00
2016,08,12,05,36,0.00
2016,08,12,05,37,0.00
2016,08,12,05,38,0.00
2016,08,12,05,39,0.00
2016,08,12,05,40,0.00
2016,08,12,05,41,0.00
2016,08,12,05,42,0.00
2016,08,12,05,43,0.00
2016,08,12,05,44,0.00
2016,08,12,05,45,0.00
2016,08,12,05,46,0.00
2016,08,12,05,47,0.00
2016,08,12,05,48,0.00
2016,08,12,05,49,0.00
2016,08,12,05,50,0.00
2016,08,12,05,51,0.00
2016,08,12,05,52,0.00
2016,08,12,05,53,0.00
2016,08,12,05,54,0.00
2016,08,12,05,55,0.00
2016,08,12,05,56,0.00
2016,08,12,05,57,0.00
2016,08,12,05,58,0.00
2016,08,12,05,59,0.00
2016,08,12,06,00,0.00
2016,08,12,06,01,0.00
2016,08,12,06,02,0.00
2016,08,12,06,03,0.00
2016,08,12,06,04,0.00
2016,08,12,06,05,0.00
2016,08,12,06,06,0.00
2016,08,12,06,07,0.00
2016,08,12,06,08,1.10
2016,08,12,06,09,5.00
2016,08,12,06,10,5.00
2016,08,12,06,11,5.00
2016,08,12,06,12,5.00
2016,08,12,06,13,5.00
2016,08,12,06,14,6.50
2016,08,12,06,15,7.00
2016,08,12,06,16,7.00
2016,08,12,06,17,7.00
2016,08,12,06,18,7.00
2016,08,12,06,19,7.40
2016,08,12,06,20,9.00
2016,08,12,06,21,9.00
2016,08,12,06,22,9.00
2016,08,12,06,23,9.00
2016,08,12,06,24,10.30
2016,08,12,06,25,11.00
2016,08,12,06,26,11.00
2016,08,12,06,27,11.00
2016,08,12,06,28,11.00
2016,08,12,06,29,11.10
2016,08,12,06,30,12.00
2016,08,12,06,31,12.00
2016,08,12,06,32,12.00
2016,08,12,06,33,12.00
2016,08,12,06,34,12.00
2016,08,12,06,35,13.30
2016,08,12,06,36,14.00
2016,08,12,06,37,14.00
2016,08,12,06,38,14.00
2016,08,12,06,39,14.00
2016,08,12,06,40,14.30
2016,08,12,06,41,16.00
2016,08,12,06,42,16.00
2016,08,12,06,43,16.00
2016,08,12,06,44,16.00
2016,08,12,06,45,16.00
2016,08,12,06,46,16.00
2016,08,12,06,47,17.50
2016,08,12,06,48,18.00
2016,08,12,06,49,18.90
2016,08,12,06,50,21.00
2016,08,12,06,51,20.70
2016,08,12,06,52,19.40
2016,08,12,06,53,21.70
2016,08,12,06,54,22.20
2016,08,12,06,55,21.00
2016,08,12,06,56,21.00
2016,08,12,06,57,21.00
2016,08,12,06,58,19.50
2016,08,12,06,59,22.20
2016,08,12,07,00,33.70
2016,08,12,07,01,44.80
2016,08,12,07,02,35.00
2016,08,12,07,03,36.10
2016,08,12,07,04,38.30
2016,08,12,07,05,35.00
2016,08,12,07,06,40.30
2016,08,12,07,07,54.30
2016,08,12,07,08,56.00
2016,08,12,07,09,45.20
2016,08,12,07,10,33.90
2016,08,12,07,11,25.80
2016,08,12,07,12,23.10
2016,08,12,07,13,23.00
2016,08,12,07,14,23.50
2016,08,12,07,15,26.00
2016,08,12,07,16,28.00
2016,08,12,07,17,29.00
2016,08,12,07,18,30.00
2016,08,12,07,19,27.30
2016,08,12,07,20,27.50
2016,08,12,07,21,26.40
2016,08,12,07,22,31.30
2016,08,12,07,23,42.40
2016,08,12,07,24,51.00
2016,08,12,07,25,77.10
2016,08,12,07,26,88.70
2016,08,12,07,27,98.60
2016,08,12,07,28,120.10
2016,08,12,07,29,133.00
2016,08,12,07,30,137.70
2016,08,12,07,31,140.50
2016,08,12,07,32,143.40
2016,08,12,07,33,145.80
2016,08,12,07,34,149.10
2016,08,12,07,35,151.60
2016,08,12,07,36,155.30
2016,08,12,07,37,157.30
2016,08,12,07,38,160.80
2016,08,12,07,39,163.40
2016,08,12,07,40,166.20
2016,08,12,07,41,169.70
2016,08,12,07,42,171.70
2016,08,12,07,43,175.30
2016,08,12,07,44,177.80
2016,08,12,07,45,181.30
2016,08,12,07,46,185.10
2016,08,12,07,47,186.90
2016,08,12,07,48,190.70
2016,08,12,07,49,193.20
2016,08,12,07,50,196.00
2016,08,12,07,51,198.70
2016,08,12,07,52,201.30
2016,08,12,07,53,205.00
2016,08,12,07,54,206.00
2016,08,12,07,55,210.40
2016,08,12,07,56,214.00
2016,08,12,07,57,216.60
2016,08,12,07,58,220.20
2016,08,12,07,59,221.70
2016,08,12,08,00,224.60
2016,08,12,08,01,228.00
2016,08,12,08,02,230.80
2016,08,12,08,03,233.30
2016,08,12,08,04,236.20
2016,08,12,08,05,238.60
2016,08,12,08,06,240.90
2016,08,12,08,07,243.20
2016,08,12,08,08,246.30
2016,08,12,08,09,248.50
2016,08,12,08,10,250.30
2016,08,12,08,11,252.60
2016,08,12,08,12,255.90
2016,08,12,08,13,257.60
2016,08,12,08,14,260.70
2016,08,12,08,15,263.50
2016,08,12,08,16,264.80
2016,08,12,08,17,268.70
2016,08,12,08,18,271.10
2016,08,12,08,19,272.30
2016,08,12,08,20,275.00
2016,08,12,08,21,278.30
2016,08,12,08,22,279.80
2016,08,12,08,23,282.00
2016,08,12,08,24,285.20
2016,08,12,08,25,287.70
2016,08,12,08,26,288.00
2016,08,12,08,27,291.30
2016,08,12,08,28,294.70
2016,08,12,08,29,297.10
2016,08,12,08,30,299.40
2016,08,12,08,31,302.40
2016,08,12,08,32,304.70
2016,08,12,08,33,307.20
2016,08,12,08,34,310.00
2016,08,12,08,35,312.10
2016,08,12,08,36,314.30
2016,08,12,08,37,315.70
2016,08,12,08,38,317.60
2016,08,12,08,39,321.60
2016,08,12,08,40,323.30
2016,08,12,08,41,327.30
2016,08,12,08,42,329.20
2016,08,12,08,43,330.70
2016,08,12,08,44,333.60
2016,08,12,08,45,337.00
2016,08,12,08,46,338.60
2016,08,12,08,47,341.70
2016,08,12,08,48,344.50
2016,08,12,08,49,345.80
2016,08,12,08,50,347.80
2016,08,12,08,51,352.10
2016,08,12,08,52,353.30
2016,08,12,08,53,355.40
2016,08,12,08,54,358.00
2016,08,12,08,55,360.00
2016,08,12,08,56,361.90
2016,08,12,08,57,365.10
2016,08,12,08,58,368.00
2016,08,12,08,59,370.50
2016,08,12,09,00,372.60
2016,08,12,09,01,375.70
2016,08,12,09,02,378.10
2016,08,12,09,03,380.30
2016,08,12,09,04,383.90
2016,08,12,09,05,387.00
2016,08,12,09,06,388.20
2016,08,12,09,07,391.00
2016,08,12,09,08,394.20
2016,08,12,09,09,396.70
2016,08,12,09,10,398.50
2016,08,12,09,11,400.60
2016,08,12,09,12,402.90
2016,08,12,09,13,406.10
2016,08,12,09,14,408.30
2016,08,12,09,15,410.70
2016,08,12,09,16,413.60
2016,08,12,09,17,415.80
2016,08,12,09,18,418.40
2016,08,12,09,19,421.20
2016,08,12,09,20,423.30
2016,08,12,09,21,426.20
2016,08,12,09,22,427.00
2016,08,12,09,23,430.60
2016,08,12,09,24,432.30
2016,08,12,09,25,436.30
2016,08,12,09,26,438.70
2016,08,12,09,27,441.60
2016,08,12,09,28,443.80
2016,08,12,09,29,446.40
2016,08,12,09,30,449.10
2016,08,12,09,31,452.50
2016,08,12,09,32,456.20
2016,08,12,09,33,458.60
2016,08,12,09,34,461.70
2016,08,12,09,35,466.00
2016,08,12,09,36,468.40
2016,08,12,09,37,471.90
2016,08,12,09,38,475.90
2016,08,12,09,39,479.90
2016,08,12,09,40,484.90
2016,08,12,09,41,488.70
2016,08,12,09,42,492.50
2016,08,12,09,43,497.50
2016,08,12,09,44,502.30
2016,08,12,09,45,507.60
2016,08,12,09,46,513.20
2016,08,12,09,47,519.70
2016,08,12,09,48,525.10
2016,08,12,09,49,530.50
2016,08,12,09,50,532.90
2016,08,12,09,51,535.30
2016,08,12,09,52,536.70
2016,08,12,09,53,534.00
2016,08,12,09,54,496.00
2016,08,12,09,55,491.40
2016,08,12,09,56,484.20
2016,08,12,09,57,403.40
2016,08,12,09,58,419.70
2016,08,12,09,59,422.30
2016,08,12,10,00,378.30
2016,08,12,10,01,342.70
2016,08,12,10,02,366.00
2016,08,12,10,03,366.00
2016,08,12,10,04,368.00
2016,08,12,10,05,394.20
2016,08,12,10,06,434.00
2016,08,12,10,07,465.00
2016,08,12,10,08,457.70
2016,08,12,10,09,508.00
2016,08,12,10,10,520.10
2016,08,12,10,11,467.30
2016,08,12,10,12,434.30
2016,08,12,10,13,461.70
2016,08,12,10,14,501.00
2016,08,12,10,15,499.00
2016,08,12,10,16,512.20
2016,08,12,10,17,541.80
2016,08,12,10,18,557.70
2016,08,12,10,19,556.90
2016,08,12,10,20,554.10
2016,08,12,10,21,557.40
2016,08,12,10,22,566.00
2016,08,12,10,23,566.80
2016,08,12,10,24,568.00
2016,08,12,10,25,569.20
2016,08,12,10,26,570.60
2016,08,12,10,27,572.40
2016,08,12,10,28,573.00
2016,08,12,10,29,576.60
2016,08,12,10,30,577.10
2016,08,12,10,31,578.30
2016,08,12,10,32,581.10
2016,08,12,10,33,585.00
2016,08,12,10,34,587.40
2016,08,12,10,35,591.50
2016,08,12,10,36,594.20
2016,08,12,10,37,597.30
2016,08,12,10,38,601.50
2016,08,12,10,39,598.90
2016,08,12,10,40,586.40
2016,08,12,10,41,607.30
2016,08,12,10,42,609.00
2016,08,12,10,43,603.70
2016,08,12,10,44,606.60
2016,08,12,10,45,609.50
2016,08,12,10,46,609.10
2016,08,12,10,47,609.30
2016,08,12,10,48,617.90
2016,08,12,10,49,611.90
2016,08,12,10,50,598.20
2016,08,12,10,51,586.20
2016,08,12,10,52,570.40
2016,08,12,10,53,559.80
2016,08,12,10,54,518.40
2016,08,12,10,55,496.30
2016,08,12,10,56,481.00
2016,08,12,10,57,476.20
2016,08,12,10,58,481.10
2016,08,12,10,59,480.70
2016,08,12,11,00,499.80
2016,08,12,11,01,522.90
2016,08,12,11,02,549.10
2016,08,12,11,03,574.30
2016,08,12,11,04,589.70
2016,08,12,11,05,586.90
2016,08,12,11,06,593.30
2016,08,12,11,07,600.40
2016,08,12,11,08,623.40
2016,08,12,11,09,617.60
2016,08,12,11,10,626.00
2016,08,12,11,11,612.80
2016,08,12,11,12,626.40
2016,08,12,11,13,629.20
2016,08,12,11,14,629.00
2016,08,12,11,15,628.00
2016,08,12,11,16,621.30
2016,08,12,11,17,621.30
2016,08,12,11,18,627.20
2016,08,12,11,19,635.70
2016,08,12,11,20,645.20
2016,08,12,11,21,649.00
2016,08,12,11,22,649.30
2016,08,12,11,23,653.10
2016,08,12,11,24,654.00
2016,08,12,11,25,654.50
2016,08,12,11,26,661.40
2016,08,12,11,27,665.80
2016,08,12,11,28,671.70
2016,08,12,11,29,668.10
2016,08,12,11,30,659.10
2016,08,12,11,31,648.30
2016,08,12,11,32,642.00
2016,08,12,11,33,642.00
2016,08,12,11,34,659.10
2016,08,12,11,35,678.30
2016,08,12,11,36,680.10
2016,08,12,11,37,682.00
2016,08,12,11,38,682.00
2016,08,12,11,39,682.00
2016,08,12,11,40,682.00
2016,08,12,11,41,683.00
2016,08,12,11,42,676.50
2016,08,12,11,43,671.00
2016,08,12,11,44,665.80
2016,08,12,11,45,664.00
2016,08,12,11,46,664.00
2016,08,12,11,47,643.30
2016,08,12,11,48,385.00
2016,08,12,11,49,385.00
2016,08,12,11,50,474.20
2016,08,12,11,51,687.90
2016,08,12,11,52,692.40
2016,08,12,11,53,695.10
2016,08,12,11,54,698.50
2016,08,12,11,55,703.60
2016,08,12,11,56,707.40
2016,08,12,11,57,708.00
2016,08,12,11,58,707.10
2016,08,12,11,59,696.00
2016,08,12,12,00,693.30
2016,08,12,12,01,686.70
2016,08,12,12,02,693.40
2016,08,12,12,03,697.40
2016,08,12,12,04,701.00
2016,08,12,12,05,701.00
2016,08,12,12,06,701.00
2016,08,12,12,07,430.50
2016,08,12,12,08,369.00
2016,08,12,12,09,684.30
2016,08,12,12,10,708.00
2016,08,12,12,11,714.00
2016,08,12,12,12,714.00
2016,08,12,12,13,566.20
2016,08,12,12,14,315.00
2016,08,12,12,15,517.80
2016,08,12,12,16,664.00
2016,08,12,12,17,661.90
2016,08,12,12,18,669.70
2016,08,12,12,19,676.30
2016,08,12,12,20,677.00
2016,08,12,12,21,682.60
2016,08,12,12,22,714.80
2016,08,12,12,23,715.70
2016,08,12,12,24,717.10
2016,08,12,12,25,713.00
2016,08,12,12,26,708.10
2016,08,12,12,27,699.30
2016,08,12,12,28,694.50
2016,08,12,12,29,703.00
2016,08,12,12,30,698.50
2016,08,12,12,31,694.10
2016,08,12,12,32,694.30
2016,08,12,12,33,694.40
2016,08,12,12,34,690.20
2016,08,12,12,35,693.00
2016,08,12,12,36,693.00
2016,08,12,12,37,694.70
2016,08,12,12,38,701.70
2016,08,12,12,39,705.00
2016,08,12,12,40,723.70
2016,08,12,12,41,730.70
2016,08,12,12,42,737.00
2016,08,12,12,43,738.70
2016,08,12,12,44,730.30
2016,08,12,12,45,732.70
2016,08,12,12,46,742.00
2016,08,12,12,47,735.30
2016,08,12,12,48,692.40
2016,08,12,12,49,718.00
2016,08,12,12,50,747.90
2016,08,12,12,51,747.40
2016,08,12,12,52,734.60
2016,08,12,12,53,732.00
2016,08,12,12,54,705.60
2016,08,12,12,55,710.00
2016,08,12,12,56,710.00
2016,08,12,12,57,710.00
2016,08,12,12,58,696.50
2016,08,12,12,59,658.70
2016,08,12,13,00,601.00
2016,08,12,13,01,531.30
2016,08,12,13,02,488.10
2016,08,12,13,03,506.10
2016,08,12,13,04,526.30
2016,08,12,13,05,493.80
2016,08,12,13,06,504.00
2016,08,12,13,07,544.70
2016,08,12,13,08,662.30
2016,08,12,13,09,722.70
2016,08,12,13,10,731.00
2016,08,12,13,11,731.00
2016,08,12,13,12,682.90
2016,08,12,13,13,707.60
2016,08,12,13,14,761.40
2016,08,12,13,15,762.90
2016,08,12,13,16,760.60
2016,08,12,13,17,757.50
2016,08,12,13,18,755.40
2016,08,12,13,19,753.20
2016,08,12,13,20,751.50
2016,08,12,13,21,751.00
2016,08,12,13,22,751.00
2016,08,12,13,23,751.70
2016,08,12,13,24,751.20
2016,08,12,13,25,749.20
2016,08,12,13,26,749.10
2016,08,12,13,27,751.00
2016,08,12,13,28,751.70
2016,08,12,13,29,753.30
2016,08,12,13,30,752.00
2016,08,12,13,31,752.00
2016,08,12,13,32,754.20
2016,08,12,13,33,757.30
2016,08,12,13,34,758.70
2016,08,12,13,35,760.60
2016,08,12,13,36,759.20
2016,08,12,13,37,759.00
2016,08,12,13,38,759.00
2016,08,12,13,39,758.80
2016,08,12,13,40,758.00
2016,08,12,13,41,758.40
2016,08,12,13,42,756.80
2016,08,12,13,43,754.00
2016,08,12,13,44,755.30
2016,08,12,13,45,754.60
2016,08,12,13,46,754.00
2016,08,12,13,47,752.20
2016,08,12,13,48,751.90
2016,08,12,13,49,751.00
2016,08,12,13,50,751.00
2016,08,12,13,51,751.00
2016,08,12,13,52,751.00
2016,08,12,13,53,750.00
2016,08,12,13,54,749.00
2016,08,12,13,55,750.30
2016,08,12,13,56,751.70
2016,08,12,13,57,730.80
2016,08,12,13,58,730.40
2016,08,12,13,59,658.40
2016,08,12,14,00,705.30
2016,08,12,14,01,752.30
2016,08,12,14,02,739.70
2016,08,12,14,03,757.70
2016,08,12,14,04,748.90
2016,08,12,14,05,754.80
2016,08,12,14,06,766.80
2016,08,12,14,07,767.80
2016,08,12,14,08,773.00
2016,08,12,14,09,776.80
2016,08,12,14,10,708.60
2016,08,12,14,11,724.80
2016,08,12,14,12,677.70
2016,08,12,14,13,658.00
2016,08,12,14,14,698.00
2016,08,12,14,15,698.00
2016,08,12,14,16,698.00
2016,08,12,14,17,730.80
2016,08,12,14,18,760.90
2016,08,12,14,19,763.40
2016,08,12,14,20,764.80
2016,08,12,14,21,761.10
2016,08,12,14,22,762.40
2016,08,12,14,23,752.40
2016,08,12,14,24,737.70
2016,08,12,14,25,750.20
2016,08,12,14,26,751.50
2016,08,12,14,27,749.90
2016,08,12,14,28,747.70
2016,08,12,14,29,747.00
2016,08,12,14,30,745.40
2016,08,12,14,31,742.30
2016,08,12,14,32,740.00
2016,08,12,14,33,737.90
2016,08,12,14,34,736.60
2016,08,12,14,35,733.80
2016,08,12,14,36,731.00
2016,08,12,14,37,731.00
2016,08,12,14,38,729.90
2016,08,12,14,39,728.40
2016,08,12,14,40,726.50
2016,08,12,14,41,722.70
2016,08,12,14,42,723.80
2016,08,12,14,43,721.10
2016,08,12,14,44,720.70
2016,08,12,14,45,718.10
2016,08,12,14,46,714.70
2016,08,12,14,47,714.40
2016,08,12,14,48,713.70
2016,08,12,14,49,710.90
2016,08,12,14,50,710.00
2016,08,12,14,51,706.50
2016,08,12,14,52,701.90
2016,08,12,14,53,706.30
2016,08,12,14,54,703.20
2016,08,12,14,55,702.60
2016,08,12,14,56,685.90
2016,08,12,14,57,681.20
2016,08,12,14,58,696.80
2016,08,12,14,59,699.30
2016,08,12,15,00,699.40
2016,08,12,15,01,696.70
2016,08,12,15,02,698.80
2016,08,12,15,03,693.00
2016,08,12,15,04,672.30
2016,08,12,15,05,677.40
2016,08,12,15,06,684.70
2016,08,12,15,07,679.00
2016,08,12,15,08,686.90
2016,08,12,15,09,691.00
2016,08,12,15,10,693.50
2016,08,12,15,11,689.40
2016,08,12,15,12,684.70
2016,08,12,15,13,682.60
2016,08,12,15,14,680.40
2016,08,12,15,15,680.00
2016,08,12,15,16,677.10
2016,08,12,15,17,678.50
2016,08,12,15,18,674.60
2016,08,12,15,19,672.30
2016,08,12,15,20,670.60
2016,08,12,15,21,670.00
2016,08,12,15,22,668.90
2016,08,12,15,23,668.00
2016,08,12,15,24,668.00
2016,08,12,15,25,668.00
2016,08,12,15,26,668.00
2016,08,12,15,27,661.10
2016,08,12,15,28,663.90
2016,08,12,15,29,663.70
2016,08,12,15,30,667.20
2016,08,12,15,31,670.40
2016,08,12,15,32,636.30
2016,08,12,15,33,566.80
2016,08,12,15,34,523.40
2016,08,12,15,35,501.00
2016,08,12,15,36,417.00
2016,08,12,15,37,464.80
2016,08,12,15,38,492.10
2016,08,12,15,39,520.40
2016,08,12,15,40,596.40
2016,08,12,15,41,634.70
2016,08,12,15,42,589.70
2016,08,12,15,43,622.10
2016,08,12,15,44,654.30
2016,08,12,15,45,642.10
2016,08,12,15,46,638.00
2016,08,12,15,47,630.20
2016,08,12,15,48,634.20
2016,08,12,15,49,628.10
2016,08,12,15,50,602.00
2016,08,12,15,51,611.20
2016,08,12,15,52,596.40
2016,08,12,15,53,631.20
2016,08,12,15,54,641.40
2016,08,12,15,55,642.40
2016,08,12,15,56,639.50
2016,08,12,15,57,634.50
2016,08,12,15,58,611.00
2016,08,12,15,59,611.30
2016,08,12,16,00,601.70
2016,08,12,16,01,551.50
2016,08,12,16,02,520.40
2016,08,12,16,03,522.00
2016,08,12,16,04,522.00
2016,08,12,16,05,550.60
2016,08,12,16,06,577.90
2016,08,12,16,07,573.00
2016,08,12,16,08,585.70
2016,08,12,16,09,589.40
2016,08,12,16,10,570.30
2016,08,12,16,11,568.90
2016,08,12,16,12,589.40
2016,08,12,16,13,576.20
2016,08,12,16,14,555.00
2016,08,12,16,15,542.70
2016,08,12,16,16,548.70
2016,08,12,16,17,535.20
2016,08,12,16,18,531.50
2016,08,12,16,19,535.10
2016,08,12,16,20,523.00
2016,08,12,16,21,536.00
2016,08,12,16,22,539.40
2016,08,12,16,23,525.70
2016,08,12,16,24,526.00
2016,08,12,16,25,538.00
2016,08,12,16,26,548.80
2016,08,12,16,27,555.40
2016,08,12,16,28,570.80
2016,08,12,16,29,576.90
2016,08,12,16,30,579.50
2016,08,12,16,31,513.00
2016,08,12,16,32,511.20
2016,08,12,16,33,513.80
2016,08,12,16,34,534.10
2016,08,12,16,35,543.00
2016,08,12,16,36,543.00
2016,08,12,16,37,515.50
2016,08,12,16,38,481.20
2016,08,12,16,39,531.10
2016,08,12,16,40,564.00
2016,08,12,16,41,517.30
2016,08,12,16,42,549.90
2016,08,12,16,43,559.20
2016,08,12,16,44,561.20
2016,08,12,16,45,562.50
2016,08,12,16,46,554.70
2016,08,12,16,47,555.50
2016,08,12,16,48,514.90
2016,08,12,16,49,502.40
2016,08,12,16,50,500.90
2016,08,12,16,51,510.60
2016,08,12,16,52,535.00
2016,08,12,16,53,531.60
2016,08,12,16,54,527.40
2016,08,12,16,55,521.80
2016,08,12,16,56,517.00
2016,08,12,16,57,516.10
2016,08,12,16,58,512.10
2016,08,12,16,59,509.30
2016,08,12,17,00,506.10
2016,08,12,17,01,502.30
2016,08,12,17,02,498.50
2016,08,12,17,03,494.90
2016,08,12,17,04,492.40
2016,08,12,17,05,490.20
2016,08,12,17,06,486.90
2016,08,12,17,07,482.10
2016,08,12,17,08,481.40
2016,08,12,17,09,465.00
2016,08,12,17,10,447.10
2016,08,12,17,11,456.70